Time,TemperatureF,DewpointF,PressureIn,WindDirection,WindDirectionDegrees,WindSpeedMPH,WindSpeedGustMPH,Humidity,HourlyPrecipIn,Conditions,Clouds,dailyrainin,SoftwareType,DateUTC
2013-07-17 00:11:00,76.0,75.0,-100.00,WSW,250,2.0,4.0,95,0.00,,,-99.99,,2013-07-17 04:11:00,
2013-07-17 00:22:00,76.0,75.0,-100.00,WSW,240,1.0,2.0,95,0.00,,,-99.99,,2013-07-17 04:22:00,
2013-07-17 00:32:00,76.0,75.0,-100.00,WSW,240,2.0,2.0,95,0.00,,,-99.99,,2013-07-17 04:32:00,
2013-07-17 00:43:00,76.0,75.0,-100.00,WSW,240,2.0,2.0,95,0.00,,,-99.99,,2013-07-17 04:43:00,
2013-07-17 01:02:00,76.0,74.0,-100.00,WSW,240,1.0,2.0,95,0.00,,,-99.99,,2013-07-17 05:02:00,
2013-07-17 01:11:00,76.0,75.0,-100.00,SW,230,1.0,2.0,95,0.00,,,-99.99,,2013-07-17 05:11:00,
2013-07-17 01:22:00,75.0,74.0,-100.00,WSW,240,1.0,2.0,95,0.00,,,-99.99,,2013-07-17 05:22:00,
2013-07-17 01:32:00,75.0,74.0,-100.00,WSW,250,2.0,2.0,95,0.00,,,-99.99,,2013-07-17 05:32:00,
2013-07-17 01:43:00,74.0,73.0,-100.00,WSW,245,1.0,1.0,96,0.00,,,-99.99,,2013-07-17 05:43:00,
2013-07-17 02:01:00,74.0,73.0,-100.00,SW,215,1.0,1.0,96,0.00,,,-99.99,,2013-07-17 06:01:00,
2013-07-17 03:01:00,73.0,72.0,-100.00,WNW,290,0.0,1.0,96,0.00,,,-99.99,,2013-07-17 07:01:00,
2013-07-17 03:22:00,73.0,72.0,-100.00,WNW,285,0.0,1.0,96,0.00,,,-99.99,,2013-07-17 07:22:00,
2013-07-17 03:52:00,72.0,71.0,-100.00,WNW,295,1.0,2.0,96,0.00,,,-99.99,,2013-07-17 07:52:00,
2013-07-17 04:01:00,72.0,71.0,-100.00,West,270,2.0,2.0,96,0.00,,,-99.99,,2013-07-17 08:01:00,
2013-07-17 04:11:00,72.0,71.0,-100.00,West,270,2.0,3.0,96,0.00,,,-99.99,,2013-07-17 08:11:00,
2013-07-17 04:32:00,72.0,71.0,-100.00,WNW,290,1.0,3.0,96,0.00,,,-99.99,,2013-07-17 08:32:00,
2013-07-17 04:43:00,72.0,71.0,-100.00,West,270,0.0,1.0,96,0.00,,,-99.99,,2013-07-17 08:43:00,
2013-07-17 04:53:00,72.0,71.0,-100.00,West,265,1.0,1.0,96,0.00,,,-99.99,,2013-07-17 08:53:00,
2013-07-17 05:02:00,72.0,71.0,-100.00,West,280,0.0,1.0,96,0.00,,,-99.99,,2013-07-17 09:02:00,
2013-07-17 05:12:00,72.0,71.0,-100.00,WSW,250,2.0,2.0,96,0.00,,,-99.99,,2013-07-17 09:12:00,
2013-07-17 05:22:00,72.0,71.0,-100.00,West,270,1.0,3.0,96,0.00,,,-99.99,,2013-07-17 09:22:00,
2013-07-17 05:32:00,71.0,70.0,-100.00,West,265,2.0,3.0,96,0.00,,,-99.99,,2013-07-17 09:32:00,
2013-07-17 05:43:00,71.0,71.0,-100.00,SW,235,0.0,1.0,96,0.00,,,-99.99,,2013-07-17 09:43:00,
2013-07-17 05:52:00,72.0,71.0,-100.00,WSW,245,0.0,1.0,97,0.00,,,-99.99,,2013-07-17 09:52:00,
2013-07-17 06:01:00,71.0,70.0,-100.00,WSW,250,0.0,1.0,97,0.00,,,-99.99,,2013-07-17 10:01:00,
2013-07-17 06:11:00,71.0,71.0,-100.00,SW,225,1.0,3.0,97,0.00,,,-99.99,,2013-07-17 10:11:00,
2013-07-17 06:22:00,71.0,71.0,-100.00,SW,230,0.0,1.0,97,0.00,,,-99.99,,2013-07-17 10:22:00,
2013-07-17 06:32:00,71.0,70.0,-100.00,SSW,200,0.0,1.0,97,0.00,,,-99.99,,2013-07-17 10:32:00,
2013-07-17 06:43:00,71.0,70.0,-100.00,SSW,195,0.0,1.0,97,0.00,,,-99.99,,2013-07-17 10:43:00,
2013-07-17 07:11:00,71.0,70.0,-100.00,West,260,1.0,2.0,97,0.00,,,-99.99,,2013-07-17 11:11:00,
2013-07-17 07:42:00,73.0,72.0,-100.00,WSW,245,2.0,3.0,97,0.00,,,-99.99,,2013-07-17 11:42:00,
2013-07-17 08:12:00,75.0,74.0,-100.00,West,280,3.0,4.0,97,0.00,,,-99.99,,2013-07-17 12:12:00,
2013-07-17 08:42:00,78.0,76.0,-100.00,West,270,5.0,7.0,96,0.00,,,-99.99,,2013-07-17 12:42:00,
2013-07-17 09:01:00,79.0,77.0,-100.00,West,275,5.0,7.0,94,0.00,,,-99.99,,2013-07-17 13:01:00,
2013-07-17 09:22:00,81.0,76.0,-100.00,WNW,295,6.0,9.0,85,0.00,,,-99.99,,2013-07-17 13:22:00,
2013-07-17 09:32:00,81.0,76.0,-100.00,WNW,295,6.0,9.0,85,0.00,,,-99.99,,2013-07-17 13:32:00,
2013-07-17 09:43:00,84.0,76.0,-100.00,WNW,285,7.0,11.0,76,0.00,,,-99.99,,2013-07-17 13:43:00,
2013-07-17 10:02:00,85.0,76.0,-100.00,West,280,7.0,11.0,73,0.00,,,-99.99,,2013-07-17 14:02:00,
2013-07-17 10:11:00,85.0,76.0,-100.00,West,280,7.0,11.0,73,0.00,,,-99.99,,2013-07-17 14:11:00,
2013-07-17 10:22:00,87.0,76.0,-100.00,WNW,285,7.0,9.0,71,0.00,,,-99.99,,2013-07-17 14:22:00,
2013-07-17 10:32:00,87.0,77.0,-100.00,WNW,295,6.0,9.0,72,0.00,,,-99.99,,2013-07-17 14:32:00,
2013-07-17 10:43:00,88.0,76.0,-100.00,NW,315,7.0,9.0,69,0.00,,,-99.99,,2013-07-17 14:43:00,
2013-07-17 11:22:00,89.0,77.0,-100.00,NW,310,6.0,11.0,67,0.00,,,-99.99,,2013-07-17 15:22:00,
2013-07-17 12:02:00,91.0,76.0,-100.00,WNW,295,6.0,12.0,63,0.00,,,-99.99,,2013-07-17 16:02:00,
2013-07-17 12:42:00,90.0,77.0,-100.00,West,270,8.0,11.0,65,0.00,,,-99.99,,2013-07-17 16:42:00,
2013-07-17 12:52:00,90.0,77.0,-100.00,West,270,8.0,11.0,65,0.00,,,-99.99,,2013-07-17 16:52:00,
2013-07-17 13:02:00,90.0,77.0,-100.00,West,270,8.0,11.0,65,0.00,,,-99.99,,2013-07-17 17:02:00,
2013-07-17 13:43:00,92.0,75.0,-100.00,West,265,9.0,13.0,59,0.00,,,-99.99,,2013-07-17 17:43:00,
2013-07-17 14:01:00,92.0,77.0,-100.00,West,280,9.0,12.0,60,0.00,,,-99.99,,2013-07-17 18:01:00,
2013-07-17 14:11:00,91.0,75.0,-100.00,West,275,10.0,12.0,59,0.00,,,-99.99,,2013-07-17 18:11:00,
2013-07-17 14:43:00,91.0,76.0,-100.00,WSW,255,8.0,15.0,60,0.00,,,-99.99,,2013-07-17 18:43:00,
2013-07-17 15:01:00,92.0,74.0,-100.00,WNW,285,10.0,13.0,55,0.00,,,-99.99,,2013-07-17 19:01:00,
2013-07-17 15:11:00,92.0,74.0,-100.00,WNW,285,10.0,13.0,55,0.00,,,-99.99,,2013-07-17 19:11:00,
2013-07-17 15:32:00,93.0,74.0,-100.00,WNW,300,10.0,13.0,54,0.00,,,-99.99,,2013-07-17 19:32:00,
2013-07-17 15:43:00,93.0,74.0,-100.00,WNW,300,10.0,13.0,54,0.00,,,-99.99,,2013-07-17 19:43:00,
2013-07-17 16:11:00,92.0,75.0,-100.00,WSW,255,9.0,11.0,56,0.00,,,-99.99,,2013-07-17 20:11:00,
2013-07-17 16:22:00,92.0,75.0,-100.00,WNW,290,10.0,12.0,57,0.00,,,-99.99,,2013-07-17 20:22:00,
2013-07-17 16:33:00,91.0,75.0,-100.00,West,275,9.0,14.0,58,0.00,,,-99.99,,2013-07-17 20:33:00,
2013-07-17 16:43:00,93.0,75.0,-100.00,WSW,250,7.0,16.0,55,0.00,,,-99.99,,2013-07-17 20:43:00,
2013-07-17 17:12:00,92.0,74.0,-100.00,West,270,10.0,14.0,55,0.00,,,-99.99,,2013-07-17 21:12:00,
2013-07-17 17:22:00,93.0,74.0,-100.00,WNW,290,9.0,14.0,54,0.00,,,-99.99,,2013-07-17 21:22:00,
2013-07-17 17:32:00,93.0,74.0,-100.00,West,280,8.0,13.0,54,0.00,,,-99.99,,2013-07-17 21:32:00,
2013-07-17 17:42:00,93.0,74.0,-100.00,WNW,285,9.0,13.0,54,0.00,,,-99.99,,2013-07-17 21:42:00,
2013-07-17 18:01:00,92.0,74.0,-100.00,WNW,295,10.0,12.0,55,0.00,,,-99.99,,2013-07-17 22:01:00,
2013-07-17 18:11:00,92.0,74.0,-100.00,WNW,295,10.0,12.0,55,0.00,,,-99.99,,2013-07-17 22:11:00,
2013-07-17 18:43:00,93.0,74.0,-100.00,WNW,295,7.0,11.0,55,0.00,,,-99.99,,2013-07-17 22:43:00,
2013-07-17 19:02:00,92.0,75.0,-100.00,WNW,290,7.0,12.0,57,0.00,,,-99.99,,2013-07-17 23:02:00,
2013-07-17 19:11:00,92.0,74.0,-100.00,WNW,285,9.0,13.0,57,0.00,,,-99.99,,2013-07-17 23:11:00,
2013-07-17 20:01:00,90.0,74.0,-100.00,WNW,300,6.0,10.0,59,0.00,,,-99.99,,2013-07-18 00:01:00,
2013-07-17 20:11:00,89.0,75.0,-100.00,NW,305,6.0,8.0,62,0.00,,,-99.99,,2013-07-18 00:11:00,
2013-07-17 20:22:00,89.0,75.0,-100.00,NW,305,6.0,8.0,62,0.00,,,-99.99,,2013-07-18 00:22:00,
2013-07-17 20:33:00,89.0,75.0,-100.00,WNW,295,5.0,7.0,64,0.00,,,-99.99,,2013-07-18 00:33:00,
2013-07-17 20:43:00,88.0,75.0,-100.00,WNW,295,4.0,7.0,66,0.00,,,-99.99,,2013-07-18 00:43:00,
2013-07-17 21:22:00,85.0,76.0,-100.00,West,280,3.0,4.0,75,0.00,,,-99.99,,2013-07-18 01:22:00,
2013-07-17 21:32:00,85.0,76.0,-100.00,West,280,3.0,4.0,75,0.00,,,-99.99,,2013-07-18 01:32:00,
2013-07-17 21:43:00,82.0,77.0,-100.00,West,260,2.0,4.0,85,0.00,,,-99.99,,2013-07-18 01:43:00,
2013-07-17 22:02:00,81.0,77.0,-100.00,West,260,3.0,4.0,86,0.00,,,-99.99,,2013-07-18 02:02:00,
2013-07-17 23:11:00,78.0,76.0,-100.00,SW,235,1.0,2.0,92,0.00,,,-99.99,,2013-07-18 03:11:00,
2013-07-17 23:22:00,78.0,76.0,-100.00,West,265,1.0,2.0,92,0.00,,,-99.99,,2013-07-18 03:22:00,
2013-07-17 23:32:00,78.0,76.0,-100.00,SW,235,2.0,2.0,93,0.00,,,-99.99,,2013-07-18 03:32:00,
2013-07-17 23:43:00,78.0,76.0,-100.00,WSW,250,1.0,2.0,93,0.00,,,-99.99,,2013-07-18 03:43:00,